Randolph AFB, TX

9:58 AM CDT on March 25, 2017 (GMT -0500)
Randolph Air Force Base

Weather History for KRND - October, 2013

Change the Weather History Date:

Monday, October 7, 2013

  Actual Average Record
Temperature  
Mean Temperature 66 °F -  
Max Temperature 83 °F 79 °F 93 °F (2011)
Min Temperature 50 °F 61 °F 46 °F (2000)
Cooling Degree Days 2    
Growing Degree Days 16 (Base 50)    
Moisture  
Dew Point 44 °F    
Average Humidity 50    
Maximum Humidity 84    
Minimum Humidity 18    
Precipitation  
Precipitation 0.00 in - - ()
Sea Level Pressure  
Sea Level Pressure 30.11 in    
Wind  
Wind Speed 5 mph (NNW)    
Max Wind Speed 8 mph    
Max Gust Speed -    
Visibility 10 miles    
Events      
Averages and records for this station are not official NWS values.
T = Trace of Precipitation, MM = Missing Value Source: NWS Daily Summary

Daily Weather History Graph

Daily Weather History Graph

Search for Another Location

Airport or City:

Trip Planner

Search our weather history database for the weather conditions in past years. The results will help you decide how hot, cold, wet, or windy it might be!

Date:

Astronomy

Oct. 07, 2013 Rise Set
Actual Time 7:29 AM CDT 7:11 PM CDT
Civil Twilight 7:06 AM CDT 7:35 PM CDT
Nautical Twilight 6:38 AM CDT 8:02 PM CDT
Astronomical Twilight 6:10 AM CDT 8:30 PM CDT
Moon 10:07 AM CDT (10/7) 9:12 PM CDT (10/7)
Length of Visible Light 12h 28m
Length of Day
11h 41m
Waxing Crescent, 9% of the Moon is Illuminated
Oct 7
Waxing Crescent
Oct 11
First Quarter
Oct 18
Full
Oct 26
Last Quarter
Nov 3
New

Hourly Weather History & Observations

Time (CDT) Temp. Dew Point Humidity Pressure Visibility Wind Dir Wind Speed Gust Speed Precip Events Conditions
12:58 AM 53.8 °F 47.5 °F 79% 30.13 in 10.0 mi NNW 5.8 mph - N/A   Clear
1:58 AM 52.7 °F 47.1 °F 81% 30.12 in 10.0 mi NW 5.8 mph - N/A   Clear
2:58 AM 54.1 °F 46.0 °F 74% 30.12 in 10.0 mi NW 4.6 mph - N/A   Clear
3:58 AM 50.5 °F 45.9 °F 84% 30.11 in 10.0 mi NNW 4.6 mph - N/A   Clear
4:58 AM 51.6 °F 45.1 °F 79% 30.11 in 10.0 mi NNW 5.8 mph - N/A   Clear
5:58 AM 51.8 °F 43.9 °F 74% 30.12 in 10.0 mi NNW 6.9 mph - N/A   Clear
6:58 AM 50.4 °F 44.4 °F 80% 30.13 in 10.0 mi NNW 6.9 mph - N/A   Clear
7:58 AM 51.6 °F 44.1 °F 75% 30.14 in 10.0 mi North 5.8 mph - N/A   Clear
8:58 AM 58.1 °F 46.2 °F 65% 30.16 in 10.0 mi NNW 8.1 mph - N/A   Clear
9:58 AM 67.6 °F 46.9 °F 47% 30.17 in 10.0 mi NE 3.5 mph - N/A   Clear
10:58 AM 74.7 °F 41.0 °F 30% 30.17 in 10.0 mi NNE 4.6 mph - N/A   Clear
11:58 AM 77.5 °F 39.2 °F 25% 30.17 in 10.0 mi NNE 5.8 mph - N/A   Clear
12:58 PM 79.5 °F 38.8 °F 23% 30.15 in 10.0 mi WSW 2.3 mph - N/A   Clear
1:58 PM 81.1 °F 39.7 °F 23% 30.12 in 10.0 mi Variable 1.2 mph - N/A   Clear
2:58 PM 82.2 °F 34.9 °F 18% 30.09 in 7.0 mi WNW 5.8 mph - N/A   Clear
3:58 PM 83.5 °F 38.1 °F 20% 30.07 in 10.0 mi ENE 4.6 mph - N/A   Clear
4:58 PM 83.1 °F 38.1 °F 20% 30.05 in 10.0 mi Variable 3.5 mph - N/A   Clear
5:58 PM 82.8 °F 42.4 °F 24% 30.05 in 10.0 mi East 2.3 mph - N/A   Clear
6:58 PM 76.3 °F 46.6 °F 35% 30.05 in 10.0 mi SE 5.8 mph - N/A   Clear
7:58 PM 71.2 °F 44.8 °F 39% 30.06 in 10.0 mi South 5.8 mph - N/A   Clear
8:53 PM 68.0 °F 44.6 °F 43% 30.08 in 8.0 mi South 2.3 mph - N/A   Clear
8:58 PM 68.5 °F 44.1 °F 41% 30.07 in 7.0 mi South 3.5 mph - N/A   Clear
9:08 PM 69.8 °F 44.6 °F 40% 30.09 in 10.0 mi South 4.6 mph - N/A   Clear
9:13 PM 68.0 °F 44.6 °F 43% 30.09 in 8.0 mi South 4.6 mph - N/A   Clear
9:23 PM 68.0 °F 44.6 °F 43% 30.09 in 10.0 mi SSE 4.6 mph - N/A   Clear
9:58 PM 67.3 °F 43.3 °F 42% 30.09 in 10.0 mi South 2.3 mph - N/A   Clear
10:58 PM 61.0 °F 51.4 °F 71% 30.09 in 10.0 mi North 1.2 mph - N/A   Clear
11:58 PM 57.2 °F 50.7 °F 79% 30.08 in 10.0 mi NNW 5.8 mph - N/A   Clear